Time,TemperatureF,DewpointF,PressureIn,WindDirection,WindDirectionDegrees,WindSpeedMPH,WindSpeedGustMPH,Humidity,HourlyPrecipIn,Conditions,Clouds,dailyrainin,SoftwareType,DateUTC
2013-03-30 00:00:00,38.8,9.2,30.02,North,353,0.0,0.0,29,0.00,CLR,,0.00,WeatherDisplay:10.37,2013-03-30 04:00:00,
2013-03-30 00:02:00,38.8,9.2,30.02,North,353,0.0,0.0,29,0.00,CLR,,0.00,WeatherDisplay:10.37,2013-03-30 04:02:00,
2013-03-30 00:07:00,38.8,9.2,30.02,North,353,2.3,0.0,29,0.00,CLR,,0.00,WeatherDisplay:10.37,2013-03-30 04:07:00,
2013-03-30 00:12:00,39.2,8.8,30.05,WNW,286,3.5,0.0,28,0.00,CLR,,0.00,WeatherDisplay:10.37,2013-03-30 04:12:00,
2013-03-30 00:17:00,39.6,9.1,30.05,WNW,292,0.0,0.0,28,0.00,CLR,,0.00,WeatherDisplay:10.37,2013-03-30 04:17:00,
2013-03-30 00:22:00,39.7,9.2,30.05,WNW,291,0.0,0.0,28,0.00,CLR,,0.00,WeatherDisplay:10.37,2013-03-30 04:22:00,
2013-03-30 00:27:00,39.9,9.4,30.02,WNW,292,0.0,0.0,28,0.00,CLR,,0.00,WeatherDisplay:10.37,2013-03-30 04:27:00,
2013-03-30 00:32:00,40.1,9.6,30.02,WNW,303,0.0,0.0,28,0.00,CLR,,0.00,WeatherDisplay:10.37,2013-03-30 04:32:00,
2013-03-30 00:37:00,40.1,9.6,30.02,WSW,247,0.0,0.0,28,0.00,CLR,,0.00,WeatherDisplay:10.37,2013-03-30 04:37:00,
2013-03-30 00:42:00,40.3,9.7,30.02,WSW,247,0.0,0.0,28,0.00,CLR,,0.00,WeatherDisplay:10.37,2013-03-30 04:42:00,
2013-03-30 00:47:00,40.3,9.7,30.02,WNW,300,0.0,0.0,28,0.00,CLR,,0.00,WeatherDisplay:10.37,2013-03-30 04:47:00,
2013-03-30 00:52:00,40.6,10.0,30.02,WNW,300,0.0,0.0,28,0.00,CLR,,0.00,WeatherDisplay:10.37,2013-03-30 04:52:00,
2013-03-30 00:57:00,40.5,9.9,30.02,WNW,300,0.0,0.0,28,0.00,CLR,,0.00,WeatherDisplay:10.37,2013-03-30 04:57:00,
2013-03-30 01:02:00,40.5,9.9,30.02,WNW,300,0.0,0.0,28,0.00,CLR,,0.00,WeatherDisplay:10.37,2013-03-30 05:02:00,
2013-03-30 01:07:00,40.5,9.9,30.02,WNW,300,0.0,0.0,28,0.00,CLR,,0.00,WeatherDisplay:10.37,2013-03-30 05:07:00,
2013-03-30 01:12:00,40.3,9.7,30.05,WNW,297,0.0,0.0,28,0.00,CLR,,0.00,WeatherDisplay:10.37,2013-03-30 05:12:00,
2013-03-30 01:17:00,40.3,9.7,30.05,NNE,17,0.0,0.0,28,0.00,CLR,,0.00,WeatherDisplay:10.37,2013-03-30 05:17:00,
2013-03-30 01:22:00,40.5,9.9,30.02,WSW,252,2.3,0.0,28,0.00,CLR,,0.00,WeatherDisplay:10.37,2013-03-30 05:22:00,
2013-03-30 01:27:00,40.3,9.7,30.02,WNW,297,2.3,0.0,28,0.00,CLR,,0.00,WeatherDisplay:10.37,2013-03-30 05:27:00,
2013-03-30 01:32:00,40.1,9.6,30.02,NNW,328,2.3,0.0,28,0.00,CLR,,0.00,WeatherDisplay:10.37,2013-03-30 05:32:00,
2013-03-30 01:37:00,40.1,9.6,30.02,NNE,19,0.0,0.0,28,0.00,CLR,,0.00,WeatherDisplay:10.37,2013-03-30 05:37:00,
2013-03-30 01:42:00,40.1,9.6,30.02,East,91,2.3,0.0,28,0.00,CLR,,0.00,WeatherDisplay:10.37,2013-03-30 05:42:00,
2013-03-30 01:47:00,40.1,9.6,30.02,NNE,12,2.3,0.0,28,0.00,CLR,,0.00,WeatherDisplay:10.37,2013-03-30 05:47:00,
2013-03-30 01:52:00,39.9,9.4,30.02,West,277,3.5,0.0,28,0.00,CLR,,0.00,WeatherDisplay:10.37,2013-03-30 05:52:00,
2013-03-30 01:57:00,39.7,11.5,30.02,WNW,288,0.0,0.0,31,0.00,CLR,,0.00,WeatherDisplay:10.37,2013-03-30 05:57:00,
2013-03-30 02:02:00,39.9,9.4,30.02,WNW,288,3.5,0.0,28,0.00,CLR,,0.00,WeatherDisplay:10.37,2013-03-30 06:02:00,
2013-03-30 02:07:00,39.9,9.4,30.02,West,272,3.5,0.0,28,0.00,CLR,,0.00,WeatherDisplay:10.37,2013-03-30 06:07:00,
2013-03-30 02:12:00,39.9,9.4,30.02,WNW,299,0.0,0.0,28,0.00,CLR,,0.00,WeatherDisplay:10.37,2013-03-30 06:12:00,
2013-03-30 02:17:00,39.7,9.2,30.02,North,4,3.5,0.0,28,0.00,CLR,,0.00,WeatherDisplay:10.37,2013-03-30 06:17:00,
2013-03-30 02:23:00,39.4,8.9,30.02,NW,304,2.3,0.0,28,0.00,CLR,,0.00,WeatherDisplay:10.37,2013-03-30 06:23:00,
2013-03-30 02:28:00,39.2,8.8,30.02,North,0,3.5,0.0,28,0.00,CLR,,0.00,WeatherDisplay:10.37,2013-03-30 06:28:00,
2013-03-30 02:33:00,39.0,9.4,30.02,WNW,301,2.3,0.0,29,0.00,CLR,,0.00,WeatherDisplay:10.37,2013-03-30 06:33:00,
2013-03-30 02:38:00,38.7,9.1,30.02,West,277,3.5,3.5,29,0.00,CLR,,0.00,WeatherDisplay:10.37,2013-03-30 06:38:00,
2013-03-30 02:43:00,38.7,9.1,30.02,NW,307,2.3,0.0,29,0.00,CLR,,0.00,WeatherDisplay:10.37,2013-03-30 06:43:00,
2013-03-30 02:48:00,38.5,8.9,30.02,WNW,292,3.5,3.5,29,0.00,CLR,,0.00,WeatherDisplay:10.37,2013-03-30 06:48:00,
2013-03-30 02:53:00,38.3,8.8,30.02,WNW,294,0.0,0.0,29,0.00,CLR,,0.00,WeatherDisplay:10.37,2013-03-30 06:53:00,
2013-03-30 02:58:00,37.9,8.5,30.02,North,353,0.0,0.0,29,0.00,CLR,,0.00,WeatherDisplay:10.37,2013-03-30 06:58:00,
2013-03-30 03:03:00,37.8,8.3,30.02,WNW,289,0.0,0.0,29,0.00,CLR,,0.00,WeatherDisplay:10.37,2013-03-30 07:03:00,
2013-03-30 03:08:00,37.6,8.1,30.02,NNW,348,3.5,3.5,29,0.00,CLR,,0.00,WeatherDisplay:10.37,2013-03-30 07:08:00,
2013-03-30 03:13:00,37.4,8.0,30.02,NW,319,3.5,0.0,29,0.00,CLR,,0.00,WeatherDisplay:10.37,2013-03-30 07:13:00,
2013-03-30 03:18:00,37.2,7.8,30.02,WNW,290,3.5,0.0,29,0.00,CLR,,0.00,WeatherDisplay:10.37,2013-03-30 07:18:00,
2013-03-30 03:23:00,37.0,7.7,30.02,WNW,283,3.5,0.0,29,0.00,CLR,,0.00,WeatherDisplay:10.37,2013-03-30 07:23:00,
2013-03-30 03:28:00,37.0,7.7,30.02,WNW,283,0.0,0.0,29,0.00,CLR,,0.00,WeatherDisplay:10.37,2013-03-30 07:28:00,
2013-03-30 03:33:00,36.9,7.5,30.02,WNW,283,0.0,0.0,29,0.00,CLR,,0.00,WeatherDisplay:10.37,2013-03-30 07:33:00,
2013-03-30 03:38:00,36.9,7.5,30.02,WNW,286,0.0,0.0,29,0.00,CLR,,0.00,WeatherDisplay:10.37,2013-03-30 07:38:00,
2013-03-30 03:43:00,36.5,7.2,30.02,WNW,286,0.0,0.0,29,0.00,CLR,,0.00,WeatherDisplay:10.37,2013-03-30 07:43:00,
2013-03-30 03:48:00,36.1,6.9,30.02,WNW,286,0.0,0.0,29,0.00,CLR,,0.00,WeatherDisplay:10.37,2013-03-30 07:48:00,
2013-03-30 03:53:00,36.1,6.9,30.02,WNW,286,0.0,0.0,29,0.00,CLR,,0.00,WeatherDisplay:10.37,2013-03-30 07:53:00,
2013-03-30 03:58:00,35.8,6.6,30.02,WNW,286,0.0,0.0,29,0.00,CLR,,0.00,WeatherDisplay:10.37,2013-03-30 07:58:00,
2013-03-30 04:03:00,35.4,7.0,30.02,WNW,286,0.0,0.0,30,0.00,CLR,,0.00,WeatherDisplay:10.37,2013-03-30 08:03:00,
2013-03-30 04:08:00,35.1,6.7,30.02,WNW,286,0.0,0.0,30,0.00,CLR,,0.00,WeatherDisplay:10.37,2013-03-30 08:08:00,
2013-03-30 04:13:00,34.9,6.5,30.02,WNW,286,0.0,0.0,30,0.00,CLR,,0.00,WeatherDisplay:10.37,2013-03-30 08:13:00,
2013-03-30 04:18:00,34.5,6.2,30.02,WNW,286,0.0,0.0,30,0.00,CLR,,0.00,WeatherDisplay:10.37,2013-03-30 08:18:00,
2013-03-30 04:23:00,34.3,6.1,30.02,WNW,286,0.0,0.0,30,0.00,CLR,,0.00,WeatherDisplay:10.37,2013-03-30 08:23:00,
2013-03-30 04:28:00,34.2,5.9,30.02,WNW,286,0.0,0.0,30,0.00,CLR,,0.00,WeatherDisplay:10.37,2013-03-30 08:28:00,
2013-03-30 04:33:00,34.2,5.9,30.02,WNW,286,0.0,0.0,30,0.00,CLR,,0.00,WeatherDisplay:10.37,2013-03-30 08:33:00,
2013-03-30 04:38:00,34.2,7.3,30.02,WNW,286,0.0,0.0,32,0.00,CLR,,0.00,WeatherDisplay:10.37,2013-03-30 08:38:00,
2013-03-30 04:43:00,34.2,7.3,30.02,WNW,286,0.0,0.0,32,0.00,CLR,,0.00,WeatherDisplay:10.37,2013-03-30 08:43:00,
2013-03-30 04:48:00,34.0,7.2,30.02,WNW,286,0.0,0.0,32,0.00,CLR,,0.00,WeatherDisplay:10.37,2013-03-30 08:48:00,
2013-03-30 04:53:00,33.8,7.0,30.02,WNW,286,2.3,0.0,32,0.00,CLR,,0.00,WeatherDisplay:10.37,2013-03-30 08:53:00,
2013-03-30 04:58:00,34.0,7.2,30.02,WNW,286,2.3,0.0,32,0.00,CLR,,0.00,WeatherDisplay:10.37,2013-03-30 08:58:00,
2013-03-30 05:03:00,34.2,7.3,30.02,WNW,286,0.0,0.0,32,0.00,CLR,,0.00,WeatherDisplay:10.37,2013-03-30 09:03:00,
2013-03-30 05:08:00,34.5,7.6,30.02,WNW,286,0.0,0.0,32,0.00,CLR,,0.00,WeatherDisplay:10.37,2013-03-30 09:08:00,
2013-03-30 05:13:00,34.7,7.8,30.02,WNW,286,0.0,0.0,32,0.00,CLR,,0.00,WeatherDisplay:10.37,2013-03-30 09:13:00,
2013-03-30 05:18:00,34.7,9.8,30.02,WNW,286,0.0,0.0,35,0.00,CLR,,0.00,WeatherDisplay:10.37,2013-03-30 09:18:00,
2013-03-30 05:23:00,34.7,9.8,30.02,WNW,286,0.0,0.0,35,0.00,CLR,,0.00,WeatherDisplay:10.37,2013-03-30 09:23:00,
2013-03-30 05:28:00,34.5,7.6,30.02,WNW,286,0.0,0.0,32,0.00,CLR,,0.00,WeatherDisplay:10.37,2013-03-30 09:28:00,
2013-03-30 05:34:00,34.9,8.0,30.02,WNW,286,0.0,0.0,32,0.00,CLR,,0.00,WeatherDisplay:10.37,2013-03-30 09:34:00,
2013-03-30 05:39:00,34.9,10.0,30.02,WNW,286,0.0,0.0,35,0.00,CLR,,0.00,WeatherDisplay:10.37,2013-03-30 09:39:00,
2013-03-30 05:44:00,35.1,8.1,30.02,WNW,286,0.0,0.0,32,0.00,CLR,,0.00,WeatherDisplay:10.37,2013-03-30 09:44:00,
2013-03-30 05:49:00,35.1,8.1,30.02,South,189,0.0,0.0,32,0.00,CLR,,0.00,WeatherDisplay:10.37,2013-03-30 09:49:00,
2013-03-30 05:54:00,35.6,8.6,30.02,North,357,4.6,4.6,32,0.00,CLR,,0.00,WeatherDisplay:10.37,2013-03-30 09:54:00,
2013-03-30 05:59:00,36.1,9.1,30.02,WSW,250,2.2,0.0,32,0.00,CLR,,0.00,WeatherDisplay:10.37,2013-03-30 09:59:00,
2013-03-30 06:04:00,36.3,9.2,30.02,WNW,284,0.0,0.0,32,0.00,CLR,,0.00,WeatherDisplay:10.37,2013-03-30 10:04:00,
2013-03-30 06:09:00,36.3,9.2,30.02,WNW,284,0.0,0.0,32,0.00,CLR,,0.00,WeatherDisplay:10.37,2013-03-30 10:09:00,
2013-03-30 06:14:00,36.5,7.2,30.02,WNW,284,0.0,0.0,29,0.00,CLR,,0.00,WeatherDisplay:10.37,2013-03-30 10:14:00,
2013-03-30 06:19:00,36.9,7.5,30.02,North,4,2.3,0.0,29,0.00,CLR,,0.00,WeatherDisplay:10.37,2013-03-30 10:19:00,
2013-03-30 06:24:00,37.0,7.7,30.02,North,1,0.0,0.0,29,0.00,CLR,,0.00,WeatherDisplay:10.37,2013-03-30 10:24:00,
2013-03-30 06:29:00,37.0,7.7,30.02,West,267,3.5,0.0,29,0.00,CLR,,0.00,WeatherDisplay:10.37,2013-03-30 10:29:00,
2013-03-30 06:34:00,37.4,8.0,30.02,South,189,0.0,0.0,29,0.00,CLR,,0.00,WeatherDisplay:10.37,2013-03-30 10:34:00,
2013-03-30 06:39:00,37.8,8.3,30.02,NW,322,3.5,3.5,29,0.00,CLR,,0.00,WeatherDisplay:10.37,2013-03-30 10:39:00,
2013-03-30 06:44:00,37.6,8.1,30.02,West,274,5.8,0.0,29,0.00,CLR,,0.00,WeatherDisplay:10.37,2013-03-30 10:44:00,
2013-03-30 06:49:00,37.6,8.1,30.02,NNW,332,3.5,3.5,29,0.00,CLR,,0.00,WeatherDisplay:10.37,2013-03-30 10:49:00,
2013-03-30 06:54:00,37.2,7.8,30.05,NNW,332,0.0,0.0,29,0.00,CLR,,0.00,WeatherDisplay:10.37,2013-03-30 10:54:00,
2013-03-30 06:59:00,37.0,7.7,30.05,WNW,303,2.3,0.0,29,0.00,CLR,,0.00,WeatherDisplay:10.37,2013-03-30 10:59:00,
2013-03-30 07:04:00,37.0,7.7,30.05,WSW,256,2.2,0.0,29,0.00,CLR,,0.00,WeatherDisplay:10.37,2013-03-30 11:04:00,
2013-03-30 07:09:00,37.4,8.0,30.05,North,6,3.5,3.5,29,0.00,CLR,,0.00,WeatherDisplay:10.37,2013-03-30 11:09:00,
2013-03-30 07:14:00,37.4,8.0,30.05,ESE,105,2.3,0.0,29,0.00,CLR,,0.00,WeatherDisplay:10.37,2013-03-30 11:14:00,
2013-03-30 07:19:00,37.8,8.3,30.05,NW,308,3.5,3.5,29,0.00,CLR,,0.00,WeatherDisplay:10.37,2013-03-30 11:19:00,
2013-03-30 07:24:00,38.1,8.6,30.05,North,357,2.7,2.7,29,0.00,CLR,,0.00,WeatherDisplay:10.37,2013-03-30 11:24:00,
2013-03-30 07:29:00,38.3,8.8,30.05,WNW,288,3.5,3.5,29,0.00,CLR,,0.00,WeatherDisplay:10.37,2013-03-30 11:29:00,
2013-03-30 07:34:00,38.7,9.1,30.05,WNW,299,3.5,3.5,29,0.00,CLR,,0.00,WeatherDisplay:10.37,2013-03-30 11:34:00,
2013-03-30 07:39:00,39.6,9.1,30.05,WNW,286,3.5,0.0,28,0.00,CLR,,0.00,WeatherDisplay:10.37,2013-03-30 11:39:00,
2013-03-30 07:44:00,40.5,9.9,30.05,NW,323,3.5,4.0,28,0.00,CLR,,0.00,WeatherDisplay:10.37,2013-03-30 11:44:00,
2013-03-30 07:49:00,39.9,9.4,30.05,West,270,3.5,0.0,28,0.00,CLR,,0.00,WeatherDisplay:10.37,2013-03-30 11:49:00,
2013-03-30 07:54:00,39.6,9.1,30.05,WSW,244,2.3,0.0,28,0.00,CLR,,0.00,WeatherDisplay:10.37,2013-03-30 11:54:00,
2013-03-30 07:59:00,39.9,9.4,30.05,NNW,335,5.8,5.8,28,0.00,CLR,,0.00,WeatherDisplay:10.37,2013-03-30 11:59:00,
2013-03-30 08:04:00,40.8,10.2,30.05,North,357,5.8,5.8,28,0.00,CLR,,0.00,WeatherDisplay:10.37,2013-03-30 12:04:00,
2013-03-30 08:09:00,41.4,10.6,30.05,NNW,327,3.5,3.5,28,0.00,CLR,,0.00,WeatherDisplay:10.37,2013-03-30 12:09:00,
2013-03-30 08:14:00,42.3,11.4,30.05,NNW,343,4.0,4.0,28,0.00,CLR,,0.00,WeatherDisplay:10.37,2013-03-30 12:14:00,
2013-03-30 08:19:00,42.6,11.7,30.05,NNW,344,3.5,3.5,28,0.00,CLR,,0.00,WeatherDisplay:10.37,2013-03-30 12:19:00,
2013-03-30 08:24:00,41.5,10.8,30.05,North,353,3.5,0.0,28,0.00,CLR,,0.00,WeatherDisplay:10.37,2013-03-30 12:24:00,
2013-03-30 08:29:00,40.6,10.0,30.05,North,3,5.8,5.8,28,0.00,CLR,,0.00,WeatherDisplay:10.37,2013-03-30 12:29:00,
2013-03-30 08:34:00,41.2,10.5,30.05,North,353,3.5,0.0,28,0.00,CLR,,0.00,WeatherDisplay:10.37,2013-03-30 12:34:00,
2013-03-30 08:39:00,42.4,11.6,30.05,North,357,3.5,3.5,28,0.00,CLR,,0.00,WeatherDisplay:10.37,2013-03-30 12:39:00,
2013-03-30 08:44:00,43.7,12.7,30.05,WNW,295,8.1,8.1,28,0.00,CLR,,0.00,WeatherDisplay:10.37,2013-03-30 12:44:00,
2013-03-30 08:49:00,44.8,12.8,30.05,South,189,3.5,3.6,27,0.00,CLR,,0.00,WeatherDisplay:10.37,2013-03-30 12:49:00,
2013-03-30 08:54:00,45.1,13.1,30.05,NNW,329,3.5,3.5,27,0.00,CLR,,0.00,WeatherDisplay:10.37,2013-03-30 12:54:00,
2013-03-30 08:59:00,44.6,12.6,30.05,NW,317,4.0,4.0,27,0.00,CLR,,0.00,WeatherDisplay:10.37,2013-03-30 12:59:00,
2013-03-30 09:04:00,45.9,13.7,30.05,SW,223,5.8,5.8,27,0.00,CLR,,0.00,WeatherDisplay:10.37,2013-03-30 13:04:00,
2013-03-30 09:09:00,47.7,15.3,30.05,NNW,331,5.8,5.8,27,0.00,CLR,,0.00,WeatherDisplay:10.37,2013-03-30 13:09:00,
2013-03-30 09:14:00,47.8,15.4,30.05,ENE,73,5.8,5.8,27,0.00,CLR,,0.00,WeatherDisplay:10.37,2013-03-30 13:14:00,
2013-03-30 09:19:00,48.6,15.2,30.05,WNW,303,8.1,8.1,26,0.00,CLR,,0.00,WeatherDisplay:10.37,2013-03-30 13:19:00,
2013-03-30 09:24:00,47.7,15.3,30.05,West,270,5.8,5.8,27,0.00,CLR,,0.00,WeatherDisplay:10.37,2013-03-30 13:24:00,
2013-03-30 09:29:00,47.5,15.1,30.05,West,262,5.8,5.8,27,0.00,CLR,,0.00,WeatherDisplay:10.37,2013-03-30 13:29:00,
2013-03-30 09:34:00,46.6,14.3,30.05,NW,306,3.5,3.5,27,0.00,CLR,,0.00,WeatherDisplay:10.37,2013-03-30 13:34:00,
2013-03-30 09:39:00,46.8,14.5,30.05,NW,321,5.8,5.8,27,0.00,CLR,,0.00,WeatherDisplay:10.37,2013-03-30 13:39:00,
2013-03-30 09:44:00,46.8,14.5,30.05,North,7,2.3,0.0,27,0.00,CLR,,0.00,WeatherDisplay:10.37,2013-03-30 13:44:00,
2013-03-30 09:49:00,47.1,14.8,30.05,North,4,3.5,0.0,27,0.00,CLR,,0.00,WeatherDisplay:10.37,2013-03-30 13:49:00,
2013-03-30 09:54:00,47.7,15.3,30.05,NW,318,0.0,0.0,27,0.00,CLR,,0.00,WeatherDisplay:10.37,2013-03-30 13:54:00,
2013-03-30 09:59:00,48.7,15.3,30.05,WNW,292,4.6,4.6,26,0.00,CLR,,0.00,WeatherDisplay:10.37,2013-03-30 13:59:00,
2013-03-30 10:04:00,48.7,15.3,30.05,WNW,291,3.5,3.5,26,0.00,CLR,,0.00,WeatherDisplay:10.37,2013-03-30 14:04:00,
2013-03-30 10:09:00,48.7,15.3,30.05,NW,326,5.8,5.8,26,0.00,CLR,,0.00,WeatherDisplay:10.37,2013-03-30 14:09:00,
2013-03-30 10:14:00,48.9,15.5,30.05,West,271,5.8,5.8,26,0.00,CLR,,0.00,WeatherDisplay:10.37,2013-03-30 14:14:00,
2013-03-30 10:20:00,49.3,15.8,30.05,WNW,297,6.9,6.9,26,0.00,CLR,,0.00,WeatherDisplay:10.37,2013-03-30 14:20:00,
2013-03-30 10:25:00,49.5,15.9,30.05,WNW,291,3.5,5.8,26,0.00,CLR,,0.00,WeatherDisplay:10.37,2013-03-30 14:25:00,
2013-03-30 10:30:00,50.7,17.0,30.05,NE,50,4.6,4.6,26,0.00,CLR,,0.00,WeatherDisplay:10.37,2013-03-30 14:30:00,
2013-03-30 10:35:00,51.8,19.7,30.05,NW,322,5.8,5.8,28,0.00,CLR,,0.00,WeatherDisplay:10.37,2013-03-30 14:35:00,
2013-03-30 10:40:00,53.6,21.2,30.05,North,9,3.5,3.6,28,0.00,CLR,,0.00,WeatherDisplay:10.37,2013-03-30 14:40:00,
2013-03-30 10:45:00,54.3,21.9,30.05,NE,43,5.8,5.8,28,0.00,CLR,,0.00,WeatherDisplay:10.37,2013-03-30 14:45:00,
2013-03-30 10:50:00,55.6,22.1,30.05,ENE,60,3.5,0.0,27,0.00,CLR,,0.00,WeatherDisplay:10.37,2013-03-30 14:50:00,
2013-03-30 10:55:00,54.7,22.2,30.05,NNW,342,3.5,3.5,28,0.00,CLR,,0.00,WeatherDisplay:10.37,2013-03-30 14:55:00,
2013-03-30 11:00:00,54.7,22.2,30.05,NE,47,9.2,9.2,28,0.00,CLR,,0.00,WeatherDisplay:10.37,2013-03-30 15:00:00,
2013-03-30 11:05:00,55.6,22.1,30.05,NW,308,2.7,0.0,27,0.00,CLR,,0.00,WeatherDisplay:10.37,2013-03-30 15:05:00,
2013-03-30 11:10:00,53.1,20.8,30.05,WSW,256,2.3,2.7,28,0.00,CLR,,0.00,WeatherDisplay:10.37,2013-03-30 15:10:00,
2013-03-30 11:15:00,55.2,22.6,30.05,West,278,8.1,8.1,28,0.00,CLR,,0.00,WeatherDisplay:10.37,2013-03-30 15:15:00,
2013-03-30 11:20:00,52.9,20.6,30.05,SW,235,5.8,5.8,28,0.00,CLR,,0.00,WeatherDisplay:10.37,2013-03-30 15:20:00,
2013-03-30 11:25:00,55.9,22.4,30.05,WNW,284,3.5,3.5,27,0.00,CLR,,0.00,WeatherDisplay:10.37,2013-03-30 15:25:00,
2013-03-30 11:30:00,53.2,20.9,30.05,WSW,258,6.3,6.3,28,0.00,CLR,,0.00,WeatherDisplay:10.37,2013-03-30 15:30:00,
2013-03-30 11:35:00,54.3,21.9,30.05,NW,307,3.5,3.6,28,0.00,CLR,,0.00,WeatherDisplay:10.37,2013-03-30 15:35:00,
2013-03-30 11:40:00,53.1,20.8,30.02,WNW,295,8.1,8.1,28,0.00,CLR,,0.00,WeatherDisplay:10.37,2013-03-30 15:40:00,
2013-03-30 11:45:00,52.0,19.8,30.02,North,353,8.1,8.1,28,0.00,CLR,,0.00,WeatherDisplay:10.37,2013-03-30 15:45:00,
2013-03-30 11:50:00,53.1,20.8,30.02,NNE,31,3.5,3.5,28,0.00,CLR,,0.00,WeatherDisplay:10.37,2013-03-30 15:50:00,
2013-03-30 11:55:00,53.2,20.9,30.02,WNW,283,3.5,0.0,28,0.00,CLR,,0.00,WeatherDisplay:10.37,2013-03-30 15:55:00,
2013-03-30 12:00:00,53.8,21.4,30.02,NW,319,5.8,5.8,28,0.00,CLR,,0.00,WeatherDisplay:10.37,2013-03-30 16:00:00,
2013-03-30 12:05:00,53.8,21.4,30.02,SW,229,5.8,5.8,28,0.00,CLR,,0.00,WeatherDisplay:10.37,2013-03-30 16:05:00,
2013-03-30 12:10:00,53.1,20.8,30.02,North,8,2.3,0.0,28,0.00,CLR,,0.00,WeatherDisplay:10.37,2013-03-30 16:10:00,
2013-03-30 12:15:00,52.9,20.6,30.02,WNW,295,5.8,5.8,28,0.00,CLR,,0.00,WeatherDisplay:10.37,2013-03-30 16:15:00,
2013-03-30 12:20:00,55.2,22.6,30.02,WSW,240,5.8,0.0,28,0.00,CLR,,0.00,WeatherDisplay:10.37,2013-03-30 16:20:00,
2013-03-30 12:25:00,56.5,22.9,30.02,WNW,285,3.5,3.5,27,0.00,CLR,,0.00,WeatherDisplay:10.37,2013-03-30 16:25:00,
2013-03-30 12:30:00,54.9,22.3,30.02,WNW,287,8.1,8.1,28,0.00,CLR,,0.00,WeatherDisplay:10.37,2013-03-30 16:30:00,
2013-03-30 12:35:00,59.7,25.6,30.02,North,11,3.5,3.5,27,0.00,CLR,,0.00,WeatherDisplay:10.37,2013-03-30 16:35:00,
2013-03-30 12:40:00,61.9,26.6,30.02,North,353,3.5,3.5,26,0.00,CLR,,0.00,WeatherDisplay:10.37,2013-03-30 16:40:00,
2013-03-30 12:45:00,60.6,26.4,30.02,North,1,3.5,3.5,27,0.00,CLR,,0.00,WeatherDisplay:10.37,2013-03-30 16:45:00,
2013-03-30 12:50:00,62.6,27.2,30.02,SSW,213,3.5,3.5,26,0.00,CLR,,0.00,WeatherDisplay:10.37,2013-03-30 16:50:00,
2013-03-30 12:55:00,59.4,25.3,30.02,NW,321,5.8,5.8,27,0.00,CLR,,0.00,WeatherDisplay:10.37,2013-03-30 16:55:00,
2013-03-30 13:00:00,57.9,24.1,30.02,WNW,299,5.8,5.8,27,0.00,CLR,,0.00,WeatherDisplay:10.37,2013-03-30 17:00:00,
2013-03-30 13:05:00,61.5,26.3,30.02,SSW,211,4.6,0.0,26,0.00,CLR,,0.00,WeatherDisplay:10.37,2013-03-30 17:05:00,
2013-03-30 13:10:00,61.2,26.0,30.02,North,6,3.5,0.0,26,0.00,CLR,,0.00,WeatherDisplay:10.37,2013-03-30 17:10:00,
2013-03-30 13:15:00,57.7,25.7,30.02,West,265,4.6,4.6,29,0.00,CLR,,0.00,WeatherDisplay:10.37,2013-03-30 17:15:00,
2013-03-30 13:20:00,56.7,23.0,30.02,SW,235,5.8,5.8,27,0.00,CLR,,0.00,WeatherDisplay:10.37,2013-03-30 17:20:00,
2013-03-30 13:25:00,59.7,25.6,30.02,West,278,5.4,5.4,27,0.00,CLR,,0.00,WeatherDisplay:10.37,2013-03-30 17:25:00,
2013-03-30 13:30:00,55.4,21.9,30.02,WNW,286,5.8,5.8,27,0.00,CLR,,0.00,WeatherDisplay:10.37,2013-03-30 17:30:00,
2013-03-30 13:35:00,58.5,24.6,30.02,NNW,348,5.8,5.8,27,0.00,CLR,,0.00,WeatherDisplay:10.37,2013-03-30 17:35:00,
2013-03-30 13:40:00,58.8,24.9,30.02,NW,318,12.7,12.7,27,0.00,CLR,,0.00,WeatherDisplay:10.37,2013-03-30 17:40:00,
2013-03-30 13:45:00,56.8,23.2,30.02,West,273,4.6,4.9,27,0.00,CLR,,0.00,WeatherDisplay:10.37,2013-03-30 17:45:00,
2013-03-30 13:50:00,55.0,22.5,30.02,SW,223,4.9,4.9,28,0.00,CLR,,0.00,WeatherDisplay:10.37,2013-03-30 17:50:00,
2013-03-30 13:55:00,53.8,21.4,30.02,West,272,5.8,5.8,28,0.00,CLR,,0.00,WeatherDisplay:10.37,2013-03-30 17:55:00,
2013-03-30 14:00:00,54.0,21.6,30.02,West,268,8.1,8.1,28,0.00,CLR,,0.00,WeatherDisplay:10.37,2013-03-30 18:00:00,
2013-03-30 14:05:00,54.9,22.3,30.02,West,276,9.2,9.2,28,0.00,CLR,,0.00,WeatherDisplay:10.37,2013-03-30 18:05:00,
2013-03-30 14:10:00,54.9,22.3,29.99,NW,313,3.5,3.5,28,0.00,CLR,,0.00,WeatherDisplay:10.37,2013-03-30 18:10:00,
2013-03-30 14:15:00,57.2,23.5,29.99,West,274,4.6,4.6,27,0.00,CLR,,0.00,WeatherDisplay:10.37,2013-03-30 18:15:00,
2013-03-30 14:20:00,58.3,24.4,29.99,NNW,338,5.8,5.8,27,0.00,CLR,,0.00,WeatherDisplay:10.37,2013-03-30 18:20:00,
2013-03-30 14:25:00,55.8,22.2,29.99,SSW,208,4.6,4.6,27,0.00,CLR,,0.00,WeatherDisplay:10.37,2013-03-30 18:25:00,
2013-03-30 14:30:00,54.5,22.0,29.99,NNW,340,10.4,10.4,28,0.00,CLR,,0.00,WeatherDisplay:10.37,2013-03-30 18:30:00,
2013-03-30 14:35:00,58.3,24.4,29.99,South,171,5.8,5.8,27,0.00,CLR,,0.00,WeatherDisplay:10.37,2013-03-30 18:35:00,
2013-03-30 14:40:00,57.2,23.5,29.99,NW,316,8.1,8.1,27,0.00,CLR,,0.00,WeatherDisplay:10.37,2013-03-30 18:40:00,
2013-03-30 14:45:00,58.3,24.4,29.99,WNW,296,5.8,5.8,27,0.00,CLR,,0.00,WeatherDisplay:10.37,2013-03-30 18:45:00,
2013-03-30 14:50:00,58.6,24.7,29.99,West,280,8.1,8.1,27,0.00,CLR,,0.00,WeatherDisplay:10.37,2013-03-30 18:50:00,
2013-03-30 14:55:00,59.0,25.0,29.99,NW,305,3.5,3.5,27,0.00,CLR,,0.00,WeatherDisplay:10.37,2013-03-30 18:55:00,
2013-03-30 15:00:00,56.1,22.6,29.99,West,281,4.6,4.6,27,0.00,CLR,,0.00,WeatherDisplay:10.37,2013-03-30 19:00:00,
2013-03-30 15:05:00,56.1,22.6,29.99,NNW,333,5.8,5.8,27,0.00,CLR,,0.00,WeatherDisplay:10.37,2013-03-30 19:05:00,
2013-03-30 15:10:00,55.0,22.5,29.99,NW,311,5.8,5.8,28,0.00,CLR,,0.00,WeatherDisplay:10.37,2013-03-30 19:10:00,
2013-03-30 15:15:00,55.0,22.5,29.99,WNW,302,3.5,0.0,28,0.00,CLR,,0.00,WeatherDisplay:10.37,2013-03-30 19:15:00,
2013-03-30 15:20:00,54.9,22.3,29.99,WSW,256,3.5,3.5,28,0.00,CLR,,0.00,WeatherDisplay:10.37,2013-03-30 19:20:00,
2013-03-30 15:25:00,54.7,22.2,29.99,West,279,5.8,5.8,28,0.00,CLR,,0.00,WeatherDisplay:10.37,2013-03-30 19:25:00,
2013-03-30 15:30:00,54.5,22.0,29.99,NNE,13,5.8,5.8,28,0.00,CLR,,0.00,WeatherDisplay:10.37,2013-03-30 19:30:00,
2013-03-30 15:35:00,54.7,22.2,29.99,WNW,295,8.1,8.1,28,0.00,CLR,,0.00,WeatherDisplay:10.37,2013-03-30 19:35:00,
2013-03-30 15:40:00,54.5,22.0,29.99,NW,312,8.1,8.1,28,0.00,CLR,,0.00,WeatherDisplay:10.37,2013-03-30 19:40:00,
2013-03-30 15:45:00,57.7,23.9,29.99,NW,313,3.5,3.5,27,0.00,CLR,,0.00,WeatherDisplay:10.37,2013-03-30 19:45:00,
2013-03-30 15:50:00,55.4,21.9,29.99,SSE,147,3.5,3.5,27,0.00,CLR,,0.00,WeatherDisplay:10.37,2013-03-30 19:50:00,
2013-03-30 15:55:00,55.0,22.5,29.99,WNW,286,5.8,5.8,28,0.00,CLR,,0.00,WeatherDisplay:10.37,2013-03-30 19:55:00,
2013-03-30 16:00:00,54.5,22.0,29.99,NW,309,3.5,3.5,28,0.00,CLR,,0.00,WeatherDisplay:10.37,2013-03-30 20:00:00,
2013-03-30 16:05:00,55.2,22.6,29.99,WNW,291,3.5,3.6,28,0.00,CLR,,0.00,WeatherDisplay:10.37,2013-03-30 20:05:00,
2013-03-30 16:10:00,55.2,22.6,29.99,NNW,343,2.3,0.0,28,0.00,CLR,,0.00,WeatherDisplay:10.37,2013-03-30 20:10:00,
2013-03-30 16:15:00,55.2,22.6,29.99,NNW,341,5.8,5.8,28,0.00,CLR,,0.00,WeatherDisplay:10.37,2013-03-30 20:15:00,
2013-03-30 16:20:00,55.0,22.5,29.99,West,279,3.5,0.0,28,0.00,CLR,,0.00,WeatherDisplay:10.37,2013-03-30 20:20:00,
2013-03-30 16:25:00,55.0,22.5,29.99,WNW,294,5.8,5.8,28,0.00,CLR,,0.00,WeatherDisplay:10.37,2013-03-30 20:25:00,
2013-03-30 16:30:00,55.0,22.5,29.99,WNW,284,5.8,5.8,28,0.00,CLR,,0.00,WeatherDisplay:10.37,2013-03-30 20:30:00,
2013-03-30 16:35:00,55.2,22.6,29.99,WNW,282,2.3,2.3,28,0.00,CLR,,0.00,WeatherDisplay:10.37,2013-03-30 20:35:00,
2013-03-30 16:40:00,54.5,22.0,29.99,WNW,300,2.3,0.0,28,0.00,CLR,,0.00,WeatherDisplay:10.37,2013-03-30 20:40:00,
2013-03-30 16:45:00,54.5,22.0,29.99,West,281,4.6,4.6,28,0.00,CLR,,0.00,WeatherDisplay:10.37,2013-03-30 20:45:00,
2013-03-30 16:50:00,54.0,21.6,29.99,NW,312,4.9,4.9,28,0.00,CLR,,0.00,WeatherDisplay:10.37,2013-03-30 20:50:00,
2013-03-30 16:55:00,57.7,23.9,29.99,NNW,329,5.8,5.8,27,0.00,CLR,,0.00,WeatherDisplay:10.37,2013-03-30 20:55:00,
2013-03-30 17:00:00,59.9,25.8,29.99,SE,127,3.5,3.6,27,0.00,CLR,,0.00,WeatherDisplay:10.37,2013-03-30 21:00:00,
2013-03-30 17:05:00,63.0,27.5,29.99,North,353,3.5,0.0,26,0.00,CLR,,0.00,WeatherDisplay:10.37,2013-03-30 21:05:00,
2013-03-30 17:10:00,63.1,27.7,29.99,North,4,3.5,3.5,26,0.00,CLR,,0.00,WeatherDisplay:10.37,2013-03-30 21:10:00,
2013-03-30 17:15:00,65.1,28.4,29.99,WNW,284,3.5,3.5,25,0.00,CLR,,0.00,WeatherDisplay:10.37,2013-03-30 21:15:00,
2013-03-30 17:20:00,59.2,25.2,29.99,West,281,5.8,5.8,27,0.00,CLR,,0.00,WeatherDisplay:10.37,2013-03-30 21:20:00,
2013-03-30 17:25:00,59.0,25.0,29.99,North,1,5.8,5.8,27,0.00,CLR,,0.00,WeatherDisplay:10.37,2013-03-30 21:25:00,
2013-03-30 17:30:00,58.1,24.3,29.99,West,278,3.5,0.0,27,0.00,CLR,,0.00,WeatherDisplay:10.37,2013-03-30 21:30:00,
2013-03-30 17:35:00,57.6,23.8,29.99,NNW,345,5.8,5.8,27,0.00,CLR,,0.00,WeatherDisplay:10.37,2013-03-30 21:35:00,
2013-03-30 17:40:00,55.8,22.2,29.99,West,267,5.4,5.4,27,0.00,CLR,,0.00,WeatherDisplay:10.37,2013-03-30 21:40:00,
2013-03-30 17:45:00,55.2,22.6,29.99,West,279,3.5,3.5,28,0.00,CLR,,0.00,WeatherDisplay:10.37,2013-03-30 21:45:00,
2013-03-30 17:50:00,54.3,21.9,29.99,NW,326,0.0,0.0,28,0.00,CLR,,0.00,WeatherDisplay:10.37,2013-03-30 21:50:00,
2013-03-30 17:55:00,55.6,22.1,29.99,WNW,293,3.5,3.5,27,0.00,CLR,,0.00,WeatherDisplay:10.37,2013-03-30 21:55:00,
2013-03-30 18:00:00,58.1,24.3,29.99,WNW,302,3.5,0.0,27,0.00,CLR,,0.00,WeatherDisplay:10.37,2013-03-30 22:00:00,
2013-03-30 18:05:00,58.5,24.6,29.99,NE,35,3.5,3.5,27,0.00,CLR,,0.00,WeatherDisplay:10.37,2013-03-30 22:05:00,
2013-03-30 18:10:00,55.4,21.9,29.99,NNW,332,3.5,3.5,27,0.00,CLR,,0.00,WeatherDisplay:10.37,2013-03-30 22:10:00,
2013-03-30 18:15:00,53.6,21.2,29.99,West,272,3.6,0.0,28,0.00,CLR,,0.00,WeatherDisplay:10.37,2013-03-30 22:15:00,
2013-03-30 18:20:00,52.7,20.5,29.99,West,274,3.5,0.0,28,0.00,CLR,,0.00,WeatherDisplay:10.37,2013-03-30 22:20:00,
2013-03-30 18:25:00,52.0,19.8,30.02,West,279,3.5,0.0,28,0.00,CLR,,0.00,WeatherDisplay:10.37,2013-03-30 22:25:00,
2013-03-30 18:30:00,51.6,17.8,30.02,South,182,3.5,3.5,26,0.00,CLR,,0.00,WeatherDisplay:10.37,2013-03-30 22:30:00,
2013-03-30 18:35:00,51.3,17.5,30.02,WNW,298,3.5,0.0,26,0.00,CLR,,0.00,WeatherDisplay:10.37,2013-03-30 22:35:00,
2013-03-30 18:40:00,50.7,17.0,30.02,WNW,299,0.0,0.0,26,0.00,CLR,,0.00,WeatherDisplay:10.37,2013-03-30 22:40:00,
2013-03-30 18:45:00,50.7,17.0,30.02,NW,313,3.5,0.0,26,0.00,CLR,,0.00,WeatherDisplay:10.37,2013-03-30 22:45:00,
2013-03-30 18:50:00,50.2,16.6,30.02,North,2,0.0,0.0,26,0.00,CLR,,0.00,WeatherDisplay:10.37,2013-03-30 22:50:00,
2013-03-30 18:55:00,49.6,16.1,30.02,North,2,0.0,0.0,26,0.00,CLR,,0.00,WeatherDisplay:10.37,2013-03-30 22:55:00,
2013-03-30 19:00:00,49.1,15.6,30.02,North,353,0.0,0.0,26,0.00,CLR,,0.00,WeatherDisplay:10.37,2013-03-30 23:00:00,
2013-03-30 19:05:00,48.6,15.2,30.02,NW,325,3.5,3.5,26,0.00,CLR,,0.00,WeatherDisplay:10.37,2013-03-30 23:05:00,
2013-03-30 19:10:00,48.6,15.2,30.02,ENE,72,0.0,0.0,26,0.00,CLR,,0.00,WeatherDisplay:10.37,2013-03-30 23:10:00,
2013-03-30 19:15:00,48.4,15.0,30.02,West,280,3.5,0.0,26,0.00,CLR,,0.00,WeatherDisplay:10.37,2013-03-30 23:15:00,
2013-03-30 19:20:00,48.0,15.6,30.02,North,357,0.0,0.0,27,0.00,CLR,,0.00,WeatherDisplay:10.37,2013-03-30 23:20:00,
2013-03-30 19:25:00,47.7,15.3,30.02,North,357,0.0,0.0,27,0.00,CLR,,0.00,WeatherDisplay:10.37,2013-03-30 23:25:00,
2013-03-30 19:30:00,47.1,14.8,30.02,North,357,0.0,0.0,27,0.00,CLR,,0.00,WeatherDisplay:10.37,2013-03-30 23:30:00,
2013-03-30 19:35:00,46.4,14.2,30.02,North,357,0.0,0.0,27,0.00,CLR,,0.00,WeatherDisplay:10.37,2013-03-30 23:35:00,
2013-03-30 19:40:00,45.9,13.7,30.02,North,357,0.0,0.0,27,0.00,CLR,,0.00,WeatherDisplay:10.37,2013-03-30 23:40:00,
2013-03-30 19:45:00,45.3,13.2,30.02,North,357,0.0,0.0,27,0.00,CLR,,0.00,WeatherDisplay:10.37,2013-03-30 23:45:00,
2013-03-30 19:50:00,45.0,12.9,30.02,North,357,0.0,0.0,27,0.00,CLR,,0.00,WeatherDisplay:10.37,2013-03-30 23:50:00,
2013-03-30 19:55:00,44.2,13.1,30.05,North,357,0.0,0.0,28,0.00,CLR,,0.00,WeatherDisplay:10.37,2013-03-30 23:55:00,
2013-03-30 20:00:00,43.9,12.8,30.05,North,357,0.0,0.0,28,0.00,CLR,,0.00,WeatherDisplay:10.37,2013-03-31 00:00:00,
2013-03-30 20:05:00,43.2,12.2,30.05,North,357,0.0,0.0,28,0.00,CLR,,0.00,WeatherDisplay:10.37,2013-03-31 00:05:00,
2013-03-30 20:10:00,42.8,11.9,30.05,North,357,0.0,0.0,28,0.00,CLR,,0.00,WeatherDisplay:10.37,2013-03-31 00:10:00,
2013-03-30 20:15:00,42.1,11.3,30.05,North,357,0.0,0.0,28,0.00,CLR,,0.00,WeatherDisplay:10.37,2013-03-31 00:15:00,
2013-03-30 20:20:00,41.5,10.8,30.05,North,357,0.0,0.0,28,0.00,CLR,,0.00,WeatherDisplay:10.37,2013-03-31 00:20:00,
2013-03-30 20:25:00,41.2,10.5,30.05,North,357,0.0,0.0,28,0.00,CLR,,0.00,WeatherDisplay:10.37,2013-03-31 00:25:00,
2013-03-30 20:30:00,40.6,10.0,30.05,North,357,0.0,0.0,28,0.00,CLR,,0.00,WeatherDisplay:10.37,2013-03-31 00:30:00,
2013-03-30 20:35:00,40.6,10.0,30.05,North,357,0.0,0.0,28,0.00,CLR,,0.00,WeatherDisplay:10.37,2013-03-31 00:35:00,
2013-03-30 20:40:00,40.3,9.7,30.05,North,357,0.0,0.0,28,0.00,CLR,,0.00,WeatherDisplay:10.37,2013-03-31 00:40:00,
2013-03-30 20:45:00,39.9,9.4,30.05,North,357,0.0,0.0,28,0.00,CLR,,0.00,WeatherDisplay:10.37,2013-03-31 00:45:00,
2013-03-30 20:50:00,39.4,8.9,30.05,North,357,0.0,0.0,28,0.00,CLR,,0.00,WeatherDisplay:10.37,2013-03-31 00:50:00,
2013-03-30 20:55:00,39.0,9.4,30.05,North,357,0.0,0.0,29,0.00,CLR,,0.00,WeatherDisplay:10.37,2013-03-31 00:55:00,
2013-03-30 21:00:00,38.7,9.1,30.05,North,357,0.0,0.0,29,0.00,CLR,,0.00,WeatherDisplay:10.37,2013-03-31 01:00:00,
2013-03-30 21:05:00,38.3,8.8,30.05,North,357,0.0,0.0,29,0.00,CLR,,0.00,WeatherDisplay:10.37,2013-03-31 01:05:00,
2013-03-30 21:10:00,37.9,8.5,30.08,North,357,0.0,0.0,29,0.00,CLR,,0.00,WeatherDisplay:10.37,2013-03-31 01:10:00,
2013-03-30 21:15:00,37.6,8.1,30.08,North,357,0.0,0.0,29,0.00,CLR,,0.00,WeatherDisplay:10.37,2013-03-31 01:15:00,
2013-03-30 21:20:00,37.4,8.0,30.08,North,357,0.0,0.0,29,0.00,CLR,,0.00,WeatherDisplay:10.37,2013-03-31 01:20:00,
2013-03-30 21:25:00,37.2,7.8,30.08,North,357,0.0,0.0,29,0.00,CLR,,0.00,WeatherDisplay:10.37,2013-03-31 01:25:00,
2013-03-30 21:30:00,36.9,7.5,30.08,North,357,0.0,0.0,29,0.00,CLR,,0.00,WeatherDisplay:10.37,2013-03-31 01:30:00,
2013-03-30 21:35:00,36.7,7.4,30.08,North,357,0.0,0.0,29,0.00,CLR,,0.00,WeatherDisplay:10.37,2013-03-31 01:35:00,
2013-03-30 21:40:00,36.1,6.9,30.08,North,357,0.0,0.0,29,0.00,CLR,,0.00,WeatherDisplay:10.37,2013-03-31 01:40:00,
2013-03-30 21:45:00,35.8,6.6,30.08,North,357,0.0,0.0,29,0.00,CLR,,0.00,WeatherDisplay:10.37,2013-03-31 01:45:00,
2013-03-30 21:50:00,35.6,6.4,30.08,North,357,0.0,0.0,29,0.00,CLR,,0.00,WeatherDisplay:10.37,2013-03-31 01:50:00,
2013-03-30 21:55:00,35.6,6.4,30.08,North,357,0.0,0.0,29,0.00,CLR,,0.00,WeatherDisplay:10.37,2013-03-31 01:55:00,
2013-03-30 22:00:00,35.2,6.8,30.08,North,357,0.0,0.0,30,0.00,CLR,,0.00,WeatherDisplay:10.37,2013-03-31 02:00:00,
2013-03-30 22:05:00,35.1,6.7,30.08,North,357,0.0,0.0,30,0.00,CLR,,0.00,WeatherDisplay:10.37,2013-03-31 02:05:00,
2013-03-30 22:10:00,34.9,6.5,30.08,North,357,0.0,0.0,30,0.00,CLR,,0.00,WeatherDisplay:10.37,2013-03-31 02:10:00,
2013-03-30 22:15:00,34.5,6.2,30.08,North,357,0.0,0.0,30,0.00,CLR,,0.00,WeatherDisplay:10.37,2013-03-31 02:15:00,
2013-03-30 22:20:00,34.3,6.1,30.08,North,357,0.0,0.0,30,0.00,CLR,,0.00,WeatherDisplay:10.37,2013-03-31 02:20:00,
2013-03-30 22:25:00,34.0,5.7,30.08,North,357,0.0,0.0,30,0.00,CLR,,0.00,WeatherDisplay:10.37,2013-03-31 02:25:00,
2013-03-30 22:30:00,33.8,5.6,30.08,North,357,0.0,0.0,30,0.00,CLR,,0.00,WeatherDisplay:10.37,2013-03-31 02:30:00,
2013-03-30 22:35:00,33.6,5.4,30.08,North,357,0.0,0.0,30,0.00,CLR,,0.00,WeatherDisplay:10.37,2013-03-31 02:35:00,
2013-03-30 22:40:00,33.3,5.1,30.08,North,357,0.0,0.0,30,0.00,CLR,,0.00,WeatherDisplay:10.37,2013-03-31 02:40:00,
2013-03-30 22:45:00,33.3,5.1,30.08,North,357,0.0,0.0,30,0.00,CLR,,0.00,WeatherDisplay:10.37,2013-03-31 02:45:00,
2013-03-30 22:50:00,33.1,5.0,30.08,North,357,0.0,0.0,30,0.00,CLR,,0.00,WeatherDisplay:10.37,2013-03-31 02:50:00,
2013-03-30 22:55:00,32.7,4.6,30.08,North,357,0.0,0.0,30,0.00,CLR,,0.00,WeatherDisplay:10.37,2013-03-31 02:55:00,
2013-03-30 23:00:00,32.5,4.5,30.08,North,357,0.0,0.0,30,0.00,CLR,,0.00,WeatherDisplay:10.37,2013-03-31 03:00:00,
2013-03-30 23:05:00,32.5,4.5,30.08,North,357,0.0,0.0,30,0.00,CLR,,0.00,WeatherDisplay:10.37,2013-03-31 03:05:00,
2013-03-30 23:10:00,32.2,4.2,30.08,North,357,0.0,0.0,30,0.00,CLR,,0.00,WeatherDisplay:10.37,2013-03-31 03:10:00,
2013-03-30 23:15:00,32.0,4.0,30.08,North,357,0.0,0.0,30,0.00,CLR,,0.00,WeatherDisplay:10.37,2013-03-31 03:15:00,
2013-03-30 23:20:00,31.6,3.7,30.08,North,357,0.0,0.0,30,0.00,CLR,,0.00,WeatherDisplay:10.37,2013-03-31 03:20:00,
2013-03-30 23:25:00,31.5,3.5,30.08,North,357,0.0,0.0,30,0.00,CLR,,0.00,WeatherDisplay:10.37,2013-03-31 03:25:00,
2013-03-30 23:30:00,31.3,3.4,30.08,North,357,0.0,0.0,30,0.00,CLR,,0.00,WeatherDisplay:10.37,2013-03-31 03:30:00,
2013-03-30 23:35:00,31.1,3.2,30.08,North,357,0.0,0.0,30,0.00,CLR,,0.00,WeatherDisplay:10.37,2013-03-31 03:35:00,
2013-03-30 23:40:00,31.3,3.4,30.08,North,357,0.0,0.0,30,0.00,CLR,,0.00,WeatherDisplay:10.37,2013-03-31 03:40:00,
2013-03-30 23:45:00,31.1,3.2,30.08,North,357,0.0,0.0,30,0.00,CLR,,0.00,WeatherDisplay:10.37,2013-03-31 03:45:00,
2013-03-30 23:50:00,31.1,3.2,30.08,North,357,0.0,0.0,30,0.00,CLR,,0.00,WeatherDisplay:10.37,2013-03-31 03:50:00,
2013-03-30 23:55:00,30.7,2.9,30.08,North,357,0.0,0.0,30,0.00,CLR,,0.00,WeatherDisplay:10.37,2013-03-31 03:55:00,